User: anonymous   Login
Location: Unspecified
(0.0000°N, 0.0000°E)
Time: 22:08:30
(UTC+00:00)
Language:

Azur - Orbit

View from above orbital plane
View from above orbital plane
View from above satellite
View from above satellite

Ground track
Ground track

The orbit data is extracted from the following two-line orbital elements,

1  4221U 69097A   20263.51996031 +.00001646 +00000-0 +81662-4 0  9991
2  4221 102.6994 324.2285 0614152 016.2640 345.7308 14.28740976418850
Epoch (UTC): 19 September 2020 12:28:44
Eccentricity: 0.0614152
inclination: 102.6994°
perigee height: 355 km
apogee height: 1236 km
right ascension of ascending node: 324.2285°
argument of perigee: 16.2640°
revolutions per day: 14.28740976
mean anomaly at epoch: 345.7308°
orbit number at epoch: 41885

The dashed part of the orbit path shows where the satellite is in the earth's shadow,  

DLR